EW2016 Weather Reports


time (UTC)temp
F
wind
direction
speed
knots
gust
knots
rain 1hr
in
rain 24hr
in
rain mn
in
humidity
%
barometer
mb
20260906113046 72 153 0.0 0.9 0.00 0.00 0.00 96 1015.6
20260906111547 72 104 0.0 0.0 0.00 0.00 0.00 96 1015.4
20260906110143 72 104 0.0 0.0 0.00 0.00 0.00 96 1015.3
20260906104539 72 171 0.0 0.9 0.00 0.00 0.00 96 1015.1
20260906103047 72 145 0.0 0.0 0.00 0.00 0.00 95 1015.0
20260906101536 72 131 0.0 0.9 0.00 0.00 0.00 95 1014.7
20260906100134 72 192 0.0 0.0 0.00 0.00 0.00 95 1014.5
20260906094549 72 192 0.0 1.7 0.00 0.00 0.00 95 1014.4
20260906093051 72 184 0.0 0.0 0.00 0.00 0.00 95 1014.2
20260906091548 71 184 0.0 0.0 0.00 0.00 0.00 95 1013.9
20260906090147 71 184 0.0 0.0 0.00 0.00 0.00 95 1013.8
20260906084542 71 184 0.0 0.0 0.00 0.00 0.00 95 1013.7
20260906083041 71 184 0.0 0.0 0.00 0.00 0.00 95 1013.8
20260906081540 71 184 0.0 0.0 0.00 0.00 0.00 95 1013.7
20260906080139 71 101 0.0 0.0 0.00 0.00 0.00 95 1013.6
20260906074537 71 101 0.0 0.0 0.00 0.00 0.00 95 1013.2
20260906073045 71 101 0.0 0.0 0.00 0.00 0.00 95 1013.2
20260906071534 71 101 0.0 0.0 0.00 0.00 0.00 95 1013.2
20260906070132 71 101 0.0 0.0 0.00 0.00 0.00 95 1013.2
20260906064549 71 101 0.0 0.0 0.00 0.00 0.00 95 1013.5
20260906063050 71 101 0.0 0.0 0.00 0.00 0.00 95 1013.5
20260906061548 71 101 0.0 0.0 0.00 0.00 0.00 95 1013.5
20260906060147 72 101 0.0 0.0 0.00 0.00 0.00 95 1013.5
20260906054544 72 101 0.0 0.0 0.00 0.00 0.00 95 1013.7
20260906053039 72 101 0.0 0.0 0.00 0.00 0.00 95 1013.9
20260906051553 72 101 0.0 0.0 0.00 0.00 0.00 95 1014.2
20260906050137 72 101 0.0 0.0 0.00 0.00 0.00 95 1014.2
20260906044555 72 101 0.0 0.0 0.00 0.00 0.00 95 1014.3
20260906043059 72 101 0.0 0.0 0.00 0.00 0.00 95 1014.4
20260906041557 72 101 0.0 0.0 0.00 0.00 0.00 95 1014.5
20260906040149 72 101 0.0 0.0 0.00 0.00 0.00 95 1014.5
20260906034605 73 101 0.0 0.0 0.00 0.00 0.00 95 1014.5
20260906033044 73 101 0.0 0.0 0.00 0.00 0.00 95 1014.5
20260906031547 73 101 0.0 0.0 0.00 0.00 0.00 95 1014.5
20260906030140 73 101 0.0 0.0 0.00 0.00 0.00 95 1014.4
20260906024536 73 101 0.0 0.0 0.00 0.00 0.00 95 1014.3
20260906023035 74 101 0.0 0.0 0.00 0.00 0.00 95 1014.4
20260906021535 74 101 0.0 0.0 0.00 0.00 0.00 95 1014.1
20260906020135 74 101 0.0 0.0 0.00 0.00 0.00 94 1013.9
20260906014553 75 101 0.0 0.0 0.00 0.00 0.00 94 1014.0
20260906013102 75 101 0.0 0.0 0.00 0.00 0.00 93 1014.3
20260906011549 75 101 0.0 0.9 0.00 0.00 0.00 92 1014.1
20260906010150 76 89 0.0 0.0 0.00 0.00 0.00 91 1013.7
20260906004540 76 89 0.0 0.0 0.00 0.00 0.00 90 1013.6
20260906003040 76 89 0.0 0.0 0.00 0.00 0.00 89 1013.6
20260906001540 77 89 0.0 0.0 0.00 0.00 0.00 87 1013.4
20260906000139 77 184 0.0 0.0 0.00 0.00 0.00 86 1013.0
20260905234537 78 184 0.0 0.0 0.00 0.00 0.00 85 1012.8
20260905233041 78 185 0.0 0.0 0.00 0.00 0.00 84 1012.7
20260905231534 79 135 0.0 0.9 0.00 0.00 0.00 83 1012.6
20260905230132 79 153 0.0 1.7 0.00 0.00 0.00 82 1012.4
20260905224552 80 96 0.0 0.9 0.00 0.00 0.00 81 1012.1
20260905223051 80 75 0.0 0.0 0.00 0.00 0.00 80 1012.1
20260905221548 80 280 0.0 1.7 0.00 0.00 0.00 79 1012.4
20260905220144 80 44 0.0 1.7 0.00 0.00 0.00 79 1012.7
20260905214539 81 151 0.0 1.7 0.00 0.00 0.00 79 1012.6
20260905213038 80 15 0.0 0.0 0.00 0.00 0.00 79 1012.2
20260905211539 80 35 0.0 0.9 0.00 0.00 0.00 79 1012.0
20260905210138 80 193 0.0 0.0 0.00 0.00 0.00 80 1012.0
20260905204553 81 158 0.0 0.0 0.00 0.00 0.00 80 1012.2
20260905203103 81 184 0.0 0.0 0.00 0.00 0.00 81 1012.1
20260905201547 81 184 0.0 0.0 0.00 0.00 0.00 80 1012.0
20260905200146 82 98 0.0 0.9 0.00 0.00 0.00 76 1012.2
20260905194539 86 82 0.0 4.3 0.00 0.00 0.00 67 1013.4
20260905193038 93 211 0.9 4.3 0.00 0.00 0.00 57 1012.7
20260905191541 95 224 0.0 0.0 0.00 0.00 0.00 52 1011.7
20260905190137 96 20 0.0 0.9 0.00 0.00 0.00 51 1011.7
20260905184601 98 168 0.0 4.3 0.00 0.00 0.00 48 1011.5
20260905183055 100 25 0.0 2.6 0.00 0.00 0.00 44 1011.9
20260905181553 100 203 0.0 3.5 0.00 0.00 0.00 47 1012.1
20260905180150 101 79 0.0 2.6 0.00 0.00 0.00 45 1012.4
20260905174554 102 206 0.9 3.5 0.00 0.00 0.00 44 1012.7
20260905173047 101 147 0.0 3.5 0.00 0.00 0.00 45 1013.3
20260905171557 100 26 0.0 5.2 0.00 0.00 0.00 46 1013.6
20260905170144 99 218 0.0 4.3 0.00 0.00 0.00 50 1013.7
20260905164546 99 352 0.0 3.5 0.00 0.00 0.00 53 1014.1
20260905163049 98 181 0.0 3.5 0.00 0.00 0.00 52 1014.2
20260905161538 98 353 0.0 3.5 0.00 0.00 0.00 50 1014.3
20260905160136 97 16 0.0 5.2 0.00 0.00 0.00 51 1014.4
20260905154632 97 211 0.0 0.9 0.00 0.02 0.00 50 1014.6
20260905153053 96 215 0.0 3.5 0.00 0.02 0.00 53 1014.9
20260905151551 95 160 0.0 3.5 0.00 0.02 0.00 55 1015.0
20260905150148 94 321 0.0 3.5 0.00 0.02 0.00 59 1015.0
20260905144553 92 12 0.0 1.7 0.00 0.02 0.00 61 1014.9
20260905143052 91 234 0.0 2.6 0.00 0.02 0.00 63 1015.0
20260905141544 89 245 0.0 1.7 0.00 0.02 0.00 69 1014.9
20260905140139 87 83 0.0 0.9 0.00 0.02 0.00 73 1014.8
20260905134543 85 210 0.0 0.9 0.00 0.02 0.00 76 1014.9
20260905133038 83 206 0.0 1.7 0.00 0.02 0.00 78 1015.0
20260905131538 82 205 0.0 0.9 0.00 0.02 0.00 81 1015.0
20260905130131 81 108 0.0 0.9 0.00 0.02 0.00 84 1015.1
20260905124548 80 6 0.0 0.0 0.00 0.02 0.00 86 1015.1
20260905123045 78 127 0.0 1.7 0.00 0.02 0.00 90 1015.2
20260905121544 75 175 0.0 0.0 0.00 0.02 0.00 95 1015.1
20260905120144 74 89 0.0 0.0 0.00 0.02 0.00 95 1015.1
20260905114537 72 182 0.0 0.0 0.00 0.02 0.00 95 1014.9